CW6778 Weather Reports


time (UTC)temp
C
wind
direction
speed
KPH
gust
KPH
rain 1hr
cm
rain 24hr
cm
rain mn
cm
humidity
%
barometer
mb
20260509064548 8 0 0.0 0.0 0.00 0.05 0.00 87 1010.4
20260509064030 8 0 0.0 0.0 0.00 0.05 0.00 87 1010.3
20260509063534 9 0 0.0 0.0 0.00 0.05 0.00 87 1010.5
20260509063048 9 0 0.0 0.0 0.00 0.05 0.00 87 1010.6
20260509062530 9 0 0.0 0.0 0.00 0.05 0.00 87 1010.6
20260509062029 9 0 0.0 0.0 0.00 0.05 0.00 87 1010.7
20260509061559 9 0 0.0 0.0 0.00 0.05 0.00 87 1010.7
20260509061032 9 0 0.0 4.8 0.00 0.05 0.00 87 1011.0
20260509060527 9 0 0.0 4.8 0.00 0.05 0.00 87 1011.0
20260509060051 9 52 3.2 4.8 0.00 0.05 0.00 86 1011.1
20260509055531 9 0 0.0 0.0 0.00 0.05 0.00 86 1011.0
20260509055030 9 0 0.0 0.0 0.00 0.05 0.00 86 1010.9
20260509054605 9 0 0.0 0.0 0.00 0.05 0.00 86 1011.0
20260509054027 9 0 0.0 0.0 0.00 0.05 0.00 86 1011.1
20260509053527 9 0 0.0 0.0 0.00 0.05 0.00 86 1011.2
20260509053051 9 0 0.0 0.0 0.00 0.05 0.00 86 1011.2
20260509052527 9 0 0.0 0.0 0.00 0.05 0.00 85 1011.3
20260509052031 9 0 0.0 0.0 0.00 0.05 0.00 85 1011.3
20260509051543 9 0 0.0 0.0 0.00 0.05 0.00 85 1011.5
20260509051030 9 0 0.0 0.0 0.00 0.05 0.00 85 1012.1
20260509050530 9 0 0.0 0.0 0.00 0.05 0.00 85 1012.2
20260509050054 9 0 0.0 0.0 0.00 0.05 0.00 85 1012.0
20260509045529 9 0 0.0 0.0 0.00 0.05 0.00 85 1012.1
20260509045027 10 0 0.0 0.0 0.00 0.05 0.00 85 1012.1
20260509044547 10 0 0.0 0.0 0.00 0.05 0.00 85 1012.1
20260509044030 10 0 0.0 0.0 0.00 0.05 0.00 85 1012.0
20260509043529 10 0 0.0 0.0 0.00 0.05 0.00 84 1011.9
20260509043054 10 0 0.0 0.0 0.00 0.05 0.00 84 1011.8
20260509042527 10 0 0.0 0.0 0.00 0.05 0.00 84 1011.9
20260509042034 10 0 0.0 0.0 0.00 0.05 0.00 84 1011.9
20260509041549 10 0 0.0 0.0 0.00 0.05 0.00 84 1011.7
20260509041030 10 0 0.0 0.0 0.00 0.05 0.00 84 1011.8
20260509040530 10 0 0.0 0.0 0.00 0.05 0.00 84 1012.0
20260509040052 10 0 0.0 0.0 0.00 0.05 0.00 83 1012.0
20260509035534 10 0 0.0 0.0 0.00 0.05 0.05 84 1012.1
20260509035029 10 0 0.0 0.0 0.00 0.05 0.05 84 1012.1
20260509034550 10 0 0.0 0.0 0.00 0.05 0.05 84 1012.2
20260509034031 10 0 0.0 0.0 0.00 0.05 0.05 83 1012.2
20260509033529 10 0 0.0 0.0 0.00 0.05 0.05 83 1012.1
20260509033050 10 0 0.0 0.0 0.00 0.05 0.05 83 1012.2
20260509032528 10 0 0.0 0.0 0.00 0.05 0.05 82 1012.1
20260509032028 10 0 0.0 0.0 0.00 0.05 0.05 81 1011.7
20260509031614 10 0 0.0 0.0 0.00 0.05 0.05 81 1011.7
20260509031027 10 0 0.0 0.0 0.00 0.05 0.05 81 1011.7
20260509030530 10 0 0.0 0.0 0.00 0.05 0.05 80 1011.8
20260509030045 10 0 0.0 0.0 0.00 0.05 0.05 80 1011.8
20260509025526 10 0 0.0 0.0 0.00 0.08 0.05 80 1011.8
20260509025027 10 0 0.0 0.0 0.00 0.08 0.05 80 1011.9
20260509024542 10 0 0.0 0.0 0.00 0.08 0.05 79 1011.8
20260509024027 10 0 0.0 0.0 0.00 0.08 0.05 79 1012.1
20260509023527 10 0 0.0 0.0 0.00 0.08 0.05 79 1012.0
20260509023050 10 0 0.0 0.0 0.00 0.08 0.05 79 1012.3
20260509022529 10 0 0.0 4.8 0.00 0.08 0.05 78 1012.2
20260509022031 11 0 0.0 4.8 0.00 0.08 0.05 78 1012.2
20260509021547 11 360 1.6 4.8 0.00 0.08 0.05 78 1012.2
20260509021029 11 360 0.0 3.2 0.00 0.08 0.05 77 1011.9
20260509020529 11 360 0.0 3.2 0.00 0.08 0.05 76 1011.9
20260509020044 11 0 0.0 4.8 0.00 0.08 0.05 76 1011.9
20260509015527 11 0 0.0 4.8 0.00 0.08 0.05 76 1011.8
20260509015028 11 0 0.0 4.8 0.00 0.08 0.05 74 1011.5
20260509014547 11 288 0.0 4.8 0.00 0.08 0.05 75 1011.2
20260509014030 11 0 0.0 4.8 0.00 0.08 0.05 75 1011.7
20260509013530 11 0 0.0 9.7 0.00 0.08 0.05 73 1012.0
20260509013047 11 360 0.0 9.7 0.00 0.08 0.05 73 1012.1
20260509012531 11 360 3.2 8.0 0.00 0.08 0.05 72 1012.0
20260509012031 11 329 3.2 8.0 0.00 0.08 0.05 71 1011.8
20260509011547 11 278 0.0 4.8 0.00 0.08 0.05 70 1011.8
20260509011031 12 0 1.6 4.8 0.00 0.08 0.05 69 1011.7
20260509010531 12 360 0.0 4.8 0.00 0.08 0.05 69 1011.3
20260509010050 12 0 0.0 3.2 0.00 0.08 0.05 68 1011.0
20260509005532 12 0 0.0 6.4 0.00 0.08 0.05 68 1011.0
20260509005031 12 0 0.0 19.3 0.00 0.08 0.05 67 1011.0
20260509004552 12 277 1.6 19.3 0.00 0.08 0.05 66 1011.0
20260509004030 12 360 1.6 20.9 0.00 0.08 0.05 66 1010.9
20260509003531 12 360 8.0 20.9 0.00 0.08 0.05 66 1010.9
20260509003047 12 286 9.7 20.9 0.00 0.08 0.05 66 1011.1
20260509002530 12 360 1.6 12.9 0.00 0.08 0.05 65 1011.1
20260509002030 12 360 3.2 17.7 0.00 0.08 0.05 64 1011.1
20260509001545 12 360 4.8 17.7 0.00 0.08 0.05 64 1011.0
20260509001030 12 360 3.2 19.3 0.00 0.08 0.05 65 1010.9
20260509000531 12 289 3.2 22.5 0.00 0.08 0.05 65 1011.0
20260508235531 12 257 4.8 25.7 0.00 0.08 0.05 65 1010.9
20260508235032 12 360 9.7 25.7 0.00 0.08 0.05 65 1010.8
20260508234548 12 286 12.9 25.7 0.00 0.08 0.05 64 1010.8
20260508234031 12 360 6.4 25.7 0.00 0.08 0.05 65 1010.6
20260508233530 12 360 11.3 25.7 0.00 0.08 0.05 65 1010.7
20260508233051 12 360 8.0 22.5 0.00 0.08 0.05 65 1010.8
20260508232530 12 360 9.7 22.5 0.00 0.08 0.05 65 1010.7
20260508232031 13 360 12.9 24.1 0.00 0.08 0.05 64 1010.8
20260508231550 13 282 14.5 33.8 0.00 0.08 0.05 64 1010.6
20260508231032 13 360 19.3 30.6 0.00 0.08 0.05 64 1010.6
20260508230531 13 282 11.3 25.7 0.00 0.08 0.05 65 1010.5
20260508230052 13 270 9.7 25.7 0.00 0.08 0.05 65 1010.4
20260508225530 13 279 14.5 25.7 0.00 0.08 0.05 64 1010.3
20260508225033 13 280 11.3 25.7 0.00 0.08 0.05 66 1010.3
20260508224554 13 265 12.9 25.7 0.00 0.08 0.05 66 1010.3
20260508224030 13 252 4.8 22.5 0.00 0.08 0.05 67 1010.2
20260508223531 13 360 8.0 22.5 0.00 0.08 0.05 67 1010.3
20260508223045 13 360 9.7 22.5 0.00 0.08 0.05 67 1010.3
20260508222532 13 250 12.9 27.4 0.00 0.08 0.05 66 1010.3
20260508222031 13 360 16.1 27.4 0.00 0.08 0.05 66 1010.4
20260508221549 13 360 6.4 27.4 0.00 0.08 0.05 68 1010.4
20260508221033 13 282 11.3 27.4 0.00 0.08 0.05 70 1010.4
20260508220534 13 279 4.8 20.9 0.00 0.08 0.05 72 1010.7
20260508220048 12 268 8.0 20.9 0.00 0.08 0.05 74 1010.6
20260508215529 12 360 3.2 17.7 0.00 0.08 0.05 75 1010.7
20260508215030 12 360 4.8 14.5 0.00 0.08 0.05 75 1010.8
20260508214606 12 0 6.4 14.5 0.00 0.08 0.05 75 1010.6
20260508214030 12 360 4.8 12.9 0.00 0.08 0.05 76 1010.8
20260508213529 12 360 3.2 6.4 0.03 0.08 0.05 76 1010.7
20260508213057 12 360 0.0 4.8 0.03 0.08 0.05 77 1010.6
20260508212529 11 0 1.6 4.8 0.05 0.08 0.05 76 1010.5
20260508212033 11 360 1.6 9.7 0.05 0.08 0.05 77 1010.6
20260508211549 11 360 3.2 12.9 0.05 0.08 0.05 77 1010.7
20260508211030 11 360 4.8 12.9 0.05 0.08 0.05 77 1010.7
20260508210530 11 360 1.6 16.1 0.05 0.08 0.05 78 1010.8
20260508210049 11 360 3.2 16.1 0.05 0.08 0.05 77 1010.8
20260508205530 11 286 4.8 19.3 0.05 0.08 0.05 77 1010.8
20260508205033 11 360 4.8 22.5 0.05 0.08 0.05 76 1010.8
20260508204551 11 360 11.3 25.7 0.05 0.08 0.05 74 1010.9
20260508204030 12 278 12.9 43.5 0.03 0.05 0.03 73 1011.1
20260508203529 12 360 16.1 43.5 0.03 0.05 0.03 70 1011.3
20260508203054 13 360 20.9 43.5 0.03 0.05 0.03 64 1011.3
20260508202532 13 360 17.7 41.8 0.00 0.03 0.00 59 1011.0
20260508202029 14 360 17.7 45.1 0.00 0.03 0.00 54 1010.6
20260508201601 14 360 25.7 43.5 0.00 0.03 0.00 51 1010.4
20260508201030 14 360 17.7 38.6 0.00 0.03 0.00 51 1010.4
20260508200529 14 282 14.5 38.6 0.00 0.03 0.00 51 1010.3
20260508195529 14 360 6.4 19.3 0.00 0.03 0.00 54 1010.5
20260508195029 14 360 0.0 6.4 0.00 0.03 0.00 57 1010.4
20260508194545 14 0 0.0 6.4 0.00 0.03 0.00 58 1010.7
20260508194029 14 0 3.2 6.4 0.00 0.03 0.00 57 1010.6
20260508193529 13 13 0.0 4.8 0.00 0.03 0.00 59 1010.6
20260508193054 13 12 0.0 6.4 0.00 0.03 0.00 58 1010.6
20260508192530 13 0 0.0 6.4 0.00 0.03 0.00 59 1010.7
20260508192029 13 0 0.0 4.8 0.00 0.03 0.00 57 1010.6
20260508191552 13 0 0.0 4.8 0.00 0.03 0.00 58 1010.7
20260508191033 13 0 0.0 4.8 0.00 0.03 0.00 57 1010.5
20260508190530 14 0 0.0 8.0 0.00 0.03 0.00 58 1010.4
20260508190057 14 0 1.6 9.7 0.00 0.03 0.00 59 1010.5
20260508185531 14 360 0.0 19.3 0.00 0.03 0.00 58 1010.5
20260508185030 14 360 6.4 19.3 0.00 0.03 0.00 59 1010.6
20260508184548 14 74 1.6 22.5 0.00 0.03 0.00 60 1010.6
20260508184030 14 58 1.6 27.4 0.00 0.03 0.00 58 1010.6
20260508183532 14 360 6.4 27.4 0.00 0.03 0.00 56 1011.1
20260508183053 15 360 12.9 27.4 0.00 0.03 0.00 50 1011.1
20260508182531 15 59 8.0 22.5 0.00 0.03 0.00 48 1010.7
20260508182030 15 360 11.3 25.7 0.00 0.03 0.00 48 1010.8
20260508181608 15 360 9.7 25.7 0.00 0.03 0.00 48 1010.8
20260508181030 15 360 8.0 33.8 0.00 0.03 0.00 50 1010.8
20260508180529 15 360 16.1 33.8 0.00 0.03 0.00 48 1011.0
20260508180104 15 275 9.7 33.8 0.00 0.03 0.00 48 1011.2
20260508175532 15 360 17.7 33.8 0.00 0.03 0.00 49 1011.3
20260508175031 15 360 11.3 25.7 0.00 0.03 0.00 50 1011.3
20260508174547 15 360 4.8 24.1 0.00 0.03 0.00 51 1011.3
20260508174032 15 360 8.0 25.7 0.00 0.03 0.00 54 1011.3
20260508173533 14 360 11.3 25.7 0.00 0.03 0.00 54 1011.5
20260508173050 13 360 8.0 20.9 0.00 0.03 0.00 58 1011.5
20260508172531 13 360 9.7 33.8 0.00 0.03 0.00 56 1011.5
20260508172035 13 360 12.9 33.8 0.00 0.03 0.00 54 1011.7
20260508171548 13 360 17.7 33.8 0.00 0.03 0.00 53 1011.8
20260508171031 13 360 16.1 27.4 0.00 0.03 0.00 51 1011.9
20260508170530 13 360 9.7 27.4 0.00 0.03 0.00 50 1011.9
20260508170049 13 355 3.2 30.6 0.00 0.03 0.00 49 1011.8
20260508165530 13 281 9.7 30.6 0.00 0.03 0.00 50 1011.7
20260508165033 14 360 8.0 24.1 0.00 0.03 0.00 50 1011.7
20260508164543 13 360 12.9 33.8 0.00 0.03 0.00 50 1011.7
20260508164030 13 360 17.7 35.4 0.00 0.03 0.00 49 1011.7
20260508163530 13 360 14.5 35.4 0.00 0.03 0.00 49 1011.8
20260508163051 14 360 19.3 33.8 0.00 0.03 0.00 48 1011.8
20260508162530 14 248 19.3 33.8 0.00 0.03 0.00 50 1011.7
20260508162032 14 360 9.7 32.2 0.00 0.03 0.00 50 1011.8
20260508161548 13 346 14.5 32.2 0.00 0.03 0.00 49 1011.9
20260508161031 13 360 20.9 32.2 0.00 0.03 0.00 48 1011.9
20260508160529 14 360 17.7 32.2 0.00 0.03 0.00 48 1011.9
20260508160047 14 360 17.7 29.0 0.00 0.03 0.00 51 1012.0
20260508155530 14 360 11.3 35.4 0.00 0.03 0.00 50 1012.0
20260508155030 14 360 11.3 35.4 0.00 0.03 0.00 51 1012.0
20260508154553 14 263 17.7 35.4 0.00 0.03 0.00 50 1011.9
20260508154029 14 360 9.7 37.0 0.00 0.03 0.00 49 1012.0
20260508153531 14 360 24.1 37.0 0.00 0.03 0.00 49 1011.9
20260508153042 14 360 19.3 38.6 0.00 0.03 0.00 48 1012.0
20260508152530 15 279 11.3 49.9 0.00 0.03 0.00 49 1012.0
20260508152030 15 360 20.9 49.9 0.00 0.03 0.00 49 1011.8
20260508151542 15 360 9.7 29.0 0.00 0.03 0.00 52 1011.7
20260508151030 15 360 11.3 33.8 0.00 0.03 0.00 52 1011.8
20260508150530 14 360 12.9 41.8 0.00 0.03 0.00 53 1011.6
20260508150046 14 360 17.7 41.8 0.00 0.03 0.00 51 1011.5
20260508145530 13 360 19.3 38.6 0.00 0.03 0.00 51 1011.5
20260508145030 13 360 16.1 40.2 0.00 0.03 0.00 51 1011.5
20260508144548 13 360 16.1 40.2 0.00 0.03 0.00 52 1011.5
20260508144030 13 360 16.1 40.2 0.00 0.03 0.00 51 1011.5
20260508143530 13 253 19.3 40.2 0.00 0.03 0.00 52 1011.7
20260508143047 13 360 17.7 37.0 0.00 0.03 0.00 53 1011.6
20260508142529 13 360 16.1 30.6 0.00 0.03 0.00 53 1011.9
20260508142029 12 248 11.3 32.2 0.00 0.03 0.00 56 1012.0
20260508141557 12 360 9.7 40.2 0.00 0.03 0.00 54 1012.0
20260508141032 12 360 17.7 40.2 0.00 0.03 0.00 55 1011.8
20260508140530 12 279 12.9 24.1 0.00 0.03 0.00 57 1012.1
20260508140052 11 360 6.4 25.7 0.00 0.03 0.00 58 1012.0
20260508135530 11 271 16.1 25.7 0.00 0.03 0.00 57 1012.0
20260508135028 11 244 6.4 24.1 0.00 0.03 0.00 59 1012.1
20260508134548 11 360 11.3 24.1 0.00 0.03 0.00 57 1011.9
20260508134029 11 360 11.3 24.1 0.00 0.03 0.00 57 1011.8
20260508133531 11 254 11.3 25.7 0.00 0.03 0.00 59 1011.9
20260508133049 10 266 9.7 25.7 0.00 0.03 0.00 60 1012.1
20260508132529 10 254 16.1 25.7 0.00 0.03 0.00 60 1012.1
20260508132029 10 360 11.3 24.1 0.00 0.03 0.00 61 1012.1
20260508131545 10 247 4.8 19.3 0.00 0.03 0.00 64 1012.2
20260508131030 10 275 3.2 19.3 0.00 0.03 0.00 67 1012.3
20260508130529 9 0 4.8 19.3 0.00 0.03 0.00 67 1012.2
20260508130047 9 360 4.8 17.7 0.00 0.03 0.00 67 1012.2
20260508125529 8 360 8.0 17.7 0.00 0.03 0.00 68 1012.2
20260508125030 8 240 8.0 17.7 0.00 0.03 0.00 71 1012.2
20260508124543 7 241 4.8 12.9 0.00 0.03 0.00 74 1012.2
20260508124031 7 0 3.2 8.0 0.00 0.03 0.00 77 1012.2
20260508123529 6 360 1.6 8.0 0.00 0.03 0.00 78 1012.2
20260508123047 6 0 1.6 8.0 0.00 0.03 0.00 79 1012.2
20260508122529 5 0 1.6 8.0 0.00 0.03 0.00 80 1012.3
20260508122029 5 0 3.2 8.0 0.00 0.03 0.00 81 1012.3
20260508121552 5 360 1.6 6.4 0.00 0.03 0.00 83 1012.3
20260508121029 5 252 3.2 6.4 0.00 0.03 0.00 83 1012.4
20260508120532 4 0 0.0 4.8 0.00 0.03 0.00 83 1012.3
20260508120057 4 360 1.6 4.8 0.00 0.03 0.00 83 1012.4
20260508115529 4 0 0.0 4.8 0.00 0.03 0.00 82 1012.3
20260508115029 4 360 0.0 6.4 0.00 0.03 0.00 83 1012.4
20260508114546 3 0 0.0 6.4 0.00 0.03 0.00 83 1012.4
20260508114031 3 0 3.2 6.4 0.00 0.03 0.00 84 1012.4
20260508113531 3 259 1.6 4.8 0.00 0.03 0.00 85 1012.4
20260508113044 3 0 0.0 4.8 0.00 0.03 0.00 86 1012.7
20260508112529 3 0 0.0 4.8 0.00 0.03 0.00 86 1012.8
20260508112029 3 360 1.6 6.4 0.00 0.03 0.00 87 1012.8
20260508111556 2 360 1.6 6.4 0.00 0.03 0.00 87 1012.8
20260508111032 2 360 3.2 6.4 0.00 0.03 0.00 87 1012.8
20260508110531 2 360 3.2 6.4 0.00 0.03 0.00 87 1012.8
20260508110058 2 360 3.2 6.4 0.00 0.03 0.00 87 1012.7
20260508105529 2 256 1.6 6.4 0.00 0.03 0.00 88 1012.6
20260508105030 2 249 1.6 6.4 0.00 0.03 0.00 88 1012.5
20260508104546 2 360 0.0 1.6 0.00 0.03 0.00 88 1012.5
20260508104030 2 0 0.0 0.0 0.00 0.03 0.00 88 1012.5
20260508103529 2 0 0.0 4.8 0.00 0.03 0.00 88 1012.3
20260508103055 2 0 0.0 6.4 0.00 0.03 0.00 88 1012.2
20260508102530 1 0 0.0 6.4 0.00 0.03 0.00 89 1012.2
20260508102029 1 251 3.2 6.4 0.00 0.03 0.00 89 1012.3
20260508101549 1 251 1.6 6.4 0.00 0.03 0.00 89 1012.3
20260508101029 1 0 0.0 4.8 0.00 0.03 0.00 89 1012.2
20260508100614 1 0 0.0 0.0 0.00 0.03 0.00 89 1012.2
20260508100048 1 0 0.0 0.0 0.00 0.03 0.00 88 1012.1
20260508095529 1 0 0.0 0.0 0.00 0.03 0.00 88 1012.1
20260508095030 1 0 0.0 0.0 0.00 0.03 0.00 88 1012.0
20260508094604 1 0 0.0 0.0 0.00 0.03 0.00 88 1012.1
20260508094031 1 0 0.0 0.0 0.00 0.03 0.00 88 1012.2
20260508093530 1 0 0.0 0.0 0.00 0.03 0.00 88 1012.0
20260508093046 1 0 0.0 6.4 0.00 0.03 0.00 88 1012.1
20260508092529 1 0 0.0 6.4 0.00 0.03 0.00 88 1012.1
20260508092029 1 250 3.2 6.4 0.00 0.03 0.00 88 1011.9
20260508091549 1 253 0.0 4.8 0.00 0.03 0.00 88 1012.0
20260508091029 1 0 0.0 0.0 0.00 0.03 0.00 88 1012.0
20260508090529 1 0 0.0 0.0 0.00 0.03 0.00 88 1012.0
20260508090053 1 0 0.0 0.0 0.00 0.03 0.00 88 1012.1
20260508085528 1 0 0.0 0.0 0.00 0.03 0.00 88 1012.0
20260508085028 1 0 0.0 0.0 0.00 0.03 0.00 88 1012.0
20260508084548 1 0 0.0 0.0 0.00 0.03 0.00 88 1012.0
20260508084030 1 0 0.0 0.0 0.00 0.03 0.00 88 1012.0
20260508083533 1 0 0.0 0.0 0.00 0.03 0.00 88 1012.0
20260508083107 2 0 0.0 4.8 0.00 0.03 0.00 87 1012.0
20260508082529 2 0 0.0 4.8 0.00 0.03 0.00 87 1012.0
20260508082030 2 253 1.6 6.4 0.00 0.03 0.00 87 1012.0
20260508081551 2 254 3.2 6.4 0.00 0.03 0.00 87 1012.1
20260508081033 2 360 0.0 4.8 0.00 0.03 0.00 87 1012.0
20260508080529 2 0 0.0 0.0 0.00 0.03 0.00 87 1011.9
20260508080049 2 0 0.0 4.8 0.00 0.03 0.00 87 1012.0
20260508075529 2 0 0.0 4.8 0.00 0.03 0.00 87 1012.0
20260508075029 2 360 1.6 4.8 0.00 0.03 0.00 88 1012.1
20260508074545 2 275 1.6 6.4 0.00 0.03 0.00 88 1011.9
20260508074029 2 274 1.6 6.4 0.00 0.03 0.00 88 1012.0
20260508073529 2 360 1.6 4.8 0.00 0.03 0.00 87 1012.0
20260508073048 2 0 0.0 4.8 0.00 0.03 0.00 87 1012.1
20260508072529 2 0 0.0 6.4 0.00 0.03 0.00 87 1012.0
20260508072029 2 360 0.0 6.4 0.00 0.03 0.00 87 1012.0
20260508071548 2 0 3.2 6.4 0.00 0.03 0.00 87 1012.1
20260508071029 2 0 1.6 9.7 0.00 0.03 0.00 87 1012.1
20260508070529 2 360 4.8 9.7 0.00 0.03 0.00 88 1012.3
20260508070047 2 261 4.8 9.7 0.00 0.03 0.00 87 1012.3
20260508065531 3 360 1.6 4.8 0.00 0.03 0.00 87 1012.3
20260508065031 3 0 0.0 4.8 0.00 0.03 0.00 87 1012.4